{"data":{"norad_id":35686,"epoch":"2026-09-20T04:31:16.211712Z","epoch_age_seconds":48767,"freshness":"FRESH","line1":"1 35686U 09041F   26263.18838208  .00001576  00000+0  13927-3 0  9992","line2":"2 35686  98.2191  61.0570 0062745 113.0139 247.7715 14.96466671930589","mean_motion":14.96466671,"eccentricity":0.0062745,"inclination_deg":98.2191,"raan_deg":61.057,"arg_perigee_deg":113.0139,"mean_anomaly_deg":247.7715,"bstar":0.00013927,"rev_number":93058,"period_min":96.226666982014,"perigee_km":534.1788826753,"apogee_km":621.46923802162,"semimajor_km":6955.9610603485,"source":"CELESTRAK","updated_at":"2026-09-20T09:00:47.442768Z"}}